Date,TemperatureHighF,TemperatureAvgF,TemperatureLowF,DewpointHighF,DewpointAvgF,DewpointLowF,HumidityHigh,HumidityAvg,HumidityLow,PressureMaxIn,PressureMinIn,WindSpeedMaxMPH,WindSpeedAvgMPH,GustSpeedMaxMPH,PrecipitationSumIn
2013-1-1,38.3,30.2,24.7,36.4,28.7,23.4,96,94,90,30.11,29.96,2,0,2,0.00
2013-1-2,41.8,33.0,27.0,32.9,27.0,23.0,95,79,63,29.97,29.82,6,1,6,0.01
2013-1-3,41.6,34.5,29.2,32.0,25.5,21.4,89,70,54,29.83,29.73,9,2,9,0.10
2013-1-4,47.2,39.3,34.9,45.8,37.6,32.0,96,93,89,29.95,29.78,5,1,5,0.17
2013-1-5,41.8,39.7,37.4,38.2,35.8,33.3,95,86,80,29.84,29.75,6,1,6,0.08
2013-1-6,44.6,40.1,36.9,43.0,38.4,34.9,96,94,91,29.83,29.62,4,1,4,0.19
2013-1-7,48.1,44.5,39.1,47.5,43.1,37.4,98,95,90,29.80,29.47,9,2,9,0.20
2013-1-8,51.8,45.7,40.7,48.9,43.7,39.3,98,93,85,29.80,29.38,14,2,14,0.37
2013-1-9,48.8,39.5,34.2,47.3,37.8,32.6,96,94,93,29.58,29.32,8,1,8,1.01
2013-1-10,37.3,35.3,32.0,35.6,33.7,30.8,95,94,93,29.75,29.58,3,0,4,0.03
2013-1-11,37.1,30.0,25.2,34.7,28.3,23.4,95,93,89,29.95,29.74,2,0,2,0.01
2013-1-12,36.7,26.9,22.0,33.8,24.7,20.0,95,91,82,30.06,29.93,4,0,4,0.00
2013-1-13,34.7,26.5,20.5,32.0,24.0,18.6,94,91,83,30.12,30.05,2,0,2,0.01
2013-1-14,36.4,31.5,26.5,32.2,28.9,24.5,94,90,84,30.18,30.08,0,0,0,0.00
2013-1-15,42.5,33.0,27.0,37.9,30.2,24.8,94,89,80,30.31,30.18,2,0,2,0.00
2013-1-16,40.9,29.3,23.4,39.0,27.3,21.6,95,92,89,30.29,30.13,2,0,2,0.00
2013-1-17,41.4,29.6,24.3,39.8,27.9,22.6,96,93,90,30.14,29.92,2,0,2,0.00
2013-1-18,35.1,30.3,24.8,33.8,29.0,23.3,96,95,93,29.97,29.88,2,0,2,0.01
2013-1-19,34.2,30.8,28.4,32.9,29.6,27.2,97,95,94,30.01,29.96,1,0,1,0.00
2013-1-20,35.8,31.2,27.7,34.6,29.9,26.2,96,95,94,30.02,29.88,1,0,1,0.00
2013-1-21,34.9,31.3,28.1,33.4,30.1,26.4,96,95,94,29.90,29.77,0,0,0,0.01
2013-1-22,37.4,30.7,24.3,36.1,29.2,22.8,96,94,93,29.77,29.54,2,0,2,0.00
2013-1-23,40.5,36.2,33.3,38.9,34.7,32.0,96,94,92,29.60,29.48,3,1,3,0.08
2013-1-24,43.6,37.7,30.8,42.5,36.6,29.8,97,96,94,29.84,29.69,3,0,4,0.16
2013-1-25,51.8,42.2,37.1,50.7,41.0,35.7,98,96,93,29.70,29.57,2,0,2,0.25
2013-1-26,47.0,40.4,36.2,41.7,37.9,34.9,97,91,78,29.67,29.52,7,1,7,0.04
2013-1-27,40.7,38.8,37.8,39.3,37.3,36.5,96,94,93,29.70,29.63,6,1,6,0.28
2013-1-28,40.9,39.0,35.6,39.8,37.9,34.6,96,96,96,29.74,29.64,5,1,5,0.52
2013-1-29,45.4,42.9,40.3,44.6,42.1,39.2,97,97,96,30.00,29.73,6,1,6,0.40
2013-1-30,47.3,45.4,43.0,46.5,44.6,42.2,98,97,97,30.02,29.96,5,1,5,0.27
2013-1-31,48.6,46.0,44.5,47.8,45.1,43.7,97,97,96,30.03,29.94,4,1,4,0.20
2013-2-1,50.9,43.9,35.8,49.2,42.6,34.7,97,95,90,30.04,29.96,2,0,2,0.07
2013-2-2,42.5,38.8,34.0,41.7,37.8,32.9,97,96,96,30.00,29.88,5,0,5,0.01
2013-2-3,46.4,40.8,33.1,45.6,40.0,32.0,98,97,96,29.94,29.84,2,0,2,0.09
2013-2-4,52.9,45.1,41.4,51.0,43.6,40.1,98,95,88,29.85,29.52,3,0,3,0.01
2013-2-5,49.3,44.2,41.6,46.3,42.6,40.0,96,94,87,29.59,29.48,4,0,4,0.27
2013-2-6,50.0,43.8,41.0,45.7,41.1,39.2,96,90,75,29.70,29.43,3,0,3,0.13
2013-2-7,51.5,40.2,31.0,43.9,36.6,28.4,95,87,69,29.81,29.43,6,0,6,0.10
2013-2-8,44.3,36.9,29.9,40.9,34.2,28.1,95,90,82,29.93,29.81,0,0,0,0.00
2013-2-9,46.1,40.4,37.1,42.8,38.0,34.7,95,91,85,29.96,29.89,1,0,1,0.03
2013-2-10,46.8,39.8,32.0,42.2,36.6,30.1,95,88,74,30.00,29.94,0,0,0,0.00
2013-2-11,47.3,41.5,35.5,43.0,38.2,33.3,95,88,78,29.99,29.95,0,0,0,0.01
2013-2-12,48.8,45.3,41.9,46.9,43.7,39.5,96,94,88,30.04,29.94,5,0,5,0.09
2013-2-13,47.2,44.6,41.4,44.5,41.9,39.5,94,90,84,30.13,29.93,1,0,1,0.03
2013-2-14,50.0,44.9,40.7,46.5,42.7,39.1,95,92,87,30.18,30.13,1,0,1,0.05
2013-2-15,54.4,42.4,36.0,50.4,40.1,34.1,95,91,82,30.17,29.80,0,0,0,0.00
2013-2-16,50.8,43.3,34.9,44.4,39.3,33.3,97,86,68,29.84,29.76,0,0,0,0.01
2013-2-17,46.3,41.4,39.1,39.3,36.5,35.1,88,83,72,29.87,29.75,0,0,0,0.01
2013-2-18,47.2,39.8,34.7,40.5,35.7,31.8,93,85,73,29.75,29.40,0,0,0,0.00
2013-2-19,52.7,39.4,32.2,41.3,33.8,28.1,93,81,59,29.64,29.36,0,0,0,0.00
2013-2-20,44.5,37.6,31.7,39.2,34.1,28.7,92,87,79,29.68,29.62,0,0,0,0.07
2013-2-21,42.1,39.8,35.5,39.3,37.4,32.8,95,91,86,29.72,29.64,0,0,0,0.04
2013-2-22,43.0,40.6,36.7,41.7,38.4,33.8,95,92,86,29.71,29.36,0,0,0,0.53
2013-2-23,50.2,41.4,37.1,41.9,36.6,33.2,92,83,67,30.02,29.55,0,0,0,0.00
2013-2-24,47.5,42.4,38.9,39.6,37.1,34.5,87,82,69,30.02,29.59,0,0,0,0.01
2013-2-25,49.3,42.0,38.2,39.0,36.2,32.5,93,81,53,29.94,29.54,0,0,0,0.09
2013-2-26,48.6,42.3,38.2,36.9,34.8,32.9,85,75,59,29.99,29.83,0,0,0,0.01
2013-2-27,51.1,43.4,35.5,44.8,39.5,32.7,93,86,75,29.94,29.84,1,0,1,0.25
2013-2-28,48.6,45.1,41.4,47.4,43.3,39.4,96,93,90,29.97,29.82,2,0,2,0.37
2013-3-1,58.3,52.5,47.7,52.7,49.2,44.8,97,89,77,30.01,29.92,5,0,5,0.09
2013-3-2,56.5,47.6,41.0,49.1,43.8,36.9,94,87,73,29.93,29.71,0,0,0,0.04
2013-3-3,49.7,39.9,31.7,39.6,33.7,27.8,92,79,58,29.93,29.83,0,0,0,0.00
2013-3-4,56.0,39.9,26.8,40.0,28.7,23.9,92,68,38,29.93,29.56,0,0,0,0.00
2013-3-5,50.9,45.4,41.4,38.0,32.3,24.8,82,61,46,29.56,29.35,0,0,0,0.00
2013-3-6,46.6,40.9,36.5,42.0,37.2,32.6,93,87,81,29.54,29.20,3,0,3,0.58
2013-3-7,55.1,44.1,34.9,47.4,40.0,30.9,94,86,69,29.72,29.54,2,0,2,0.33
2013-3-8,54.2,40.1,29.9,44.9,35.0,27.3,93,83,64,29.87,29.71,0,0,0,0.00
2013-3-9,33.5,32.6,32.0,29.7,29.0,28.6,88,87,85,29.91,29.87,0,0,0,0.00
2013-3-26,63.4,56.3,47.2,45.0,40.0,36.9,68,55,44,29.66,29.61,0,0,0,0.00
2013-3-27,58.7,48.8,41.8,48.5,41.2,35.7,85,75,60,29.63,29.57,0,0,0,0.04
2013-3-28,63.0,49.1,40.0,53.1,43.6,36.1,92,82,62,29.79,29.62,0,0,0,0.08
2013-3-29,67.0,51.0,39.4,51.4,42.9,37.0,93,76,47,29.90,29.79,0,0,0,0.01
2013-3-30,69.5,51.6,34.9,48.9,40.9,31.1,91,69,45,29.89,29.71,0,0,0,0.00
2013-3-31,72.4,53.5,36.7,50.5,41.6,32.4,89,66,42,29.71,29.57,0,0,0,0.00
2013-4-1,66.2,50.8,39.6,53.6,44.1,35.2,91,78,62,29.81,29.62,0,0,0,0.00
2013-4-2,54.7,49.9,47.0,48.9,45.0,42.5,88,83,79,29.85,29.80,0,0,0,0.00
2013-4-3,64.8,52.2,40.3,50.0,44.0,37.4,91,75,55,29.83,29.59,0,0,0,0.00
2013-4-4,56.7,50.6,45.7,52.7,46.7,39.8,91,87,77,29.59,29.30,0,0,0,0.20
2013-4-5,54.9,50.4,46.6,51.2,47.7,44.2,94,91,84,29.53,29.38,0,0,0,0.81
2013-4-6,50.8,46.5,42.5,46.9,43.7,39.8,94,90,82,29.59,29.36,0,0,0,0.63
2013-4-7,44.1,41.2,38.5,42.7,39.2,36.6,99,93,90,29.53,29.12,0,0,0,1.73
2013-4-8,54.4,45.8,38.9,51.6,43.4,37.4,99,92,81,29.92,29.53,0,0,0,0.06
2013-4-9,56.0,47.3,39.6,49.2,43.3,37.9,99,87,71,29.99,29.83,0,0,0,0.00
2013-4-10,58.0,50.1,45.7,50.3,44.8,39.7,99,83,60,29.90,29.58,0,0,0,0.29
2013-4-11,54.0,46.1,41.2,47.4,41.8,37.8,99,85,71,29.94,29.82,0,0,0,0.16
2013-4-12,47.5,41.9,36.5,47.3,40.6,36.2,99,95,81,29.82,29.39,0,0,0,0.34
2013-4-13,55.3,44.6,37.6,55.0,44.3,37.4,99,99,97,29.59,29.46,0,0,0,0.05
2013-4-14,58.1,50.0,41.0,54.5,41.5,36.4,96,73,51,29.64,29.57,0,0,0,0.15
2013-4-15,59.0,45.5,36.4,44.5,38.8,33.1,92,78,51,29.82,29.58,0,0,0,0.09
2013-4-16,56.9,44.2,33.5,46.9,37.5,30.8,93,78,57,30.04,29.81,0,0,0,0.01
2013-4-17,63.2,47.9,34.6,45.2,37.7,31.3,91,70,36,30.10,30.03,0,0,0,0.00
2013-4-18,52.6,46.8,40.0,47.5,41.9,33.7,93,83,74,30.10,29.87,0,0,0,0.29
2013-4-19,55.8,50.7,47.9,53.0,48.5,45.9,95,92,89,29.87,29.71,0,0,0,0.92
2013-4-20,55.1,49.0,45.7,51.0,45.9,43.4,94,89,79,29.93,29.84,0,0,0,0.02
2013-4-21,54.5,47.5,40.1,48.8,43.4,36.3,89,85,77,30.00,29.86,0,0,0,0.08
2013-4-22,62.1,47.6,33.7,46.5,36.6,30.0,94,69,33,30.14,30.00,0,0,0,0.01
2013-4-23,65.3,49.6,33.8,43.5,35.1,29.6,90,62,30,30.06,29.88,0,0,0,0.01
2013-4-24,71.5,53.6,36.0,46.4,37.7,31.1,87,58,31,29.95,29.71,0,0,0,0.00
2013-4-25,74.7,56.1,38.9,46.5,40.0,33.3,84,58,33,29.80,29.68,0,0,0,0.00
2013-4-26,71.5,56.5,41.6,52.2,44.8,36.7,88,67,42,29.90,29.80,0,0,0,0.00
2013-4-27,53.6,51.9,49.9,49.5,45.0,41.4,90,78,65,29.87,29.82,0,0,0,0.11
2013-4-28,58.9,52.9,47.5,48.5,44.5,41.0,88,74,56,29.86,29.62,0,0,0,0.03
2013-4-29,56.3,48.3,42.8,46.3,41.1,34.5,91,77,54,29.81,29.57,0,0,0,0.24
2013-4-30,58.7,47.1,37.1,40.5,35.0,29.6,85,65,39,30.07,29.81,0,0,0,0.00
2013-5-1,67.0,50.4,32.6,40.5,34.5,28.0,86,58,31,30.20,30.07,0,0,0,0.00
2013-5-2,71.5,55.9,38.5,47.7,40.2,31.4,82,57,40,30.18,30.01,0,0,0,0.00
2013-5-3,73.4,58.8,42.8,52.2,44.0,35.5,81,59,41,30.03,29.88,0,0,0,0.00
2013-5-4,80.5,62.2,42.8,52.6,44.3,37.0,87,56,30,29.88,29.65,0,0,0,0.00
2013-5-5,84.2,65.5,45.5,51.8,44.5,38.1,80,50,25,29.65,29.44,0,0,0,0.00
2013-5-6,88.2,67.8,48.2,53.2,45.7,41.0,80,50,22,29.50,29.43,0,0,0,0.00
2013-5-7,73.8,60.5,50.8,55.5,49.5,43.3,84,68,51,29.66,29.49,0,0,0,0.00
2013-5-8,70.2,57.6,48.6,56.4,49.5,41.9,87,75,57,29.79,29.67,0,0,0,0.05
2013-5-9,73.1,58.4,45.7,58.1,50.0,41.5,90,75,54,29.86,29.78,0,0,0,0.00
2013-5-10,81.5,65.0,46.8,59.1,51.9,42.1,89,65,41,29.84,29.78,0,0,0,0.00
2013-5-11,82.6,67.3,53.1,58.4,52.6,45.5,79,61,42,29.84,29.66,0,0,0,0.00
2013-5-12,72.5,64.0,58.1,60.6,56.6,52.9,88,77,60,29.76,29.69,0,0,0,0.33
2013-5-13,66.8,56.6,46.6,59.1,51.7,42.0,90,84,65,29.84,29.59,0,0,0,0.25
2013-5-14,66.6,54.0,43.0,48.6,43.7,40.1,91,70,44,29.86,29.77,0,0,0,0.00
2013-5-15,65.2,53.9,42.8,50.7,45.5,38.5,86,74,53,29.77,29.67,0,0,0,0.06
2013-5-16,72.0,61.0,51.5,56.0,51.3,48.0,89,72,46,29.67,29.53,0,0,0,0.01
2013-5-17,62.6,56.6,52.7,54.0,50.2,47.3,89,80,64,29.72,29.61,0,0,0,0.08
2013-5-18,60.1,55.4,50.8,52.9,49.6,47.0,89,81,70,29.92,29.72,0,0,0,0.05
2013-5-19,65.5,57.2,51.1,53.3,49.9,44.8,89,77,62,30.04,29.92,0,0,0,0.00
2013-5-20,68.4,56.9,47.7,55.6,49.1,43.3,88,76,57,29.99,29.54,0,0,0,0.00
2013-5-21,59.0,51.9,46.3,50.0,45.4,41.3,89,79,63,29.54,29.43,0,0,0,0.39
2013-5-22,52.6,47.0,42.8,48.1,43.5,39.7,90,87,81,29.58,29.50,0,0,0,0.59
2013-5-23,59.0,50.3,44.1,49.7,46.0,40.8,92,85,71,29.66,29.57,0,0,0,0.17
2013-5-24,63.0,53.3,46.8,52.3,48.0,44.1,91,83,66,29.71,29.61,0,0,0,0.08
2013-5-25,64.1,55.4,48.8,52.3,48.5,45.5,91,78,60,29.69,29.61,0,0,0,0.00
2013-5-26,65.5,55.7,48.8,55.7,49.9,44.5,89,81,65,29.64,29.58,0,0,0,0.10
2013-5-27,61.2,55.5,49.0,56.5,52.0,45.5,92,88,84,29.62,29.37,0,0,0,0.39
2013-5-28,61.9,55.7,51.5,55.4,51.7,48.9,93,87,76,29.54,29.42,0,0,0,0.07
2013-5-29,60.1,54.4,49.5,54.1,49.4,46.7,92,84,72,29.62,29.33,0,0,0,0.15
2013-5-30,61.7,53.9,47.5,51.1,47.6,44.5,90,80,64,29.89,29.63,0,0,0,0.03
2013-5-31,67.9,57.5,49.0,52.2,48.8,42.3,90,74,53,29.98,29.89,0,0,0,0.00
2013-6-1,74.3,61.0,47.7,54.9,49.1,41.8,87,67,44,29.89,29.70,0,0,0,0.00
2013-6-2,70.9,60.7,53.5,53.5,49.7,46.1,82,68,49,29.74,29.71,0,0,0,0.00
2013-6-3,73.4,59.6,46.4,57.5,50.0,41.8,89,72,52,29.77,29.72,0,0,0,0.00
2013-6-4,80.5,65.3,47.9,59.3,52.5,42.7,88,65,42,29.77,29.68,0,0,0,0.00
2013-6-5,79.6,67.3,51.5,59.1,54.0,44.9,85,64,46,29.74,29.69,0,0,0,0.00
2013-6-6,80.1,67.3,51.5,59.4,52.6,44.8,83,61,39,29.71,29.67,0,0,0,0.00
2013-6-7,71.5,61.7,52.6,56.7,49.5,44.8,78,65,47,29.79,29.69,0,0,0,0.09
2013-6-8,70.4,61.0,54.7,55.5,51.4,48.0,81,71,56,29.83,29.75,0,0,0,0.00
2013-6-9,70.4,60.6,51.5,52.5,48.4,43.9,80,65,46,29.76,29.67,0,0,0,0.00
2013-6-10,71.6,60.4,48.1,51.8,47.0,40.8,78,62,46,29.68,29.54,0,0,0,0.00
2013-6-11,66.8,57.7,50.0,50.0,46.1,43.3,81,66,49,29.77,29.61,0,0,0,0.00
2013-6-12,67.3,57.6,50.0,51.4,47.7,42.9,83,70,54,29.81,29.76,0,0,0,0.13
2013-6-13,68.4,58.4,51.5,56.5,50.7,47.5,88,77,53,29.88,29.79,0,0,0,0.01
2013-6-14,67.5,58.2,51.5,54.1,49.6,44.6,84,73,58,29.89,29.70,0,0,0,0.00
2013-6-15,78.8,63.4,45.9,59.1,51.5,41.0,89,67,44,29.70,29.58,0,0,0,0.00
2013-6-16,75.2,63.3,50.9,61.4,53.2,45.5,86,71,55,29.76,29.66,0,0,0,0.01
2013-6-17,77.0,63.6,54.0,58.6,52.7,48.5,84,69,47,29.76,29.57,0,0,0,0.02
2013-6-18,73.4,63.4,55.8,55.1,51.5,48.2,85,67,44,29.64,29.54,0,0,0,0.00
2013-6-19,68.0,59.0,50.4,54.9,50.2,44.0,85,73,53,29.67,29.58,0,0,0,0.00
2013-6-20,61.0,56.3,53.3,53.9,50.6,48.7,89,81,72,29.76,29.62,0,0,0,0.19
2013-6-21,68.6,59.8,52.6,58.4,53.0,48.0,92,79,62,29.81,29.76,0,0,0,0.05
2013-6-22,78.5,64.8,49.0,59.1,53.6,44.9,90,69,48,29.77,29.51,0,0,0,0.00
2013-6-23,73.1,65.2,59.0,64.2,58.9,53.0,88,80,73,29.51,29.26,0,0,0,0.18
2013-6-24,68.2,61.8,57.1,59.9,57.2,54.3,92,85,72,29.37,29.24,0,0,0,0.40
2013-6-25,73.8,61.7,55.3,62.5,56.7,52.4,93,84,64,29.52,29.33,0,0,0,0.42
2013-6-26,72.0,63.7,56.5,62.3,58.0,53.3,92,82,70,29.71,29.51,0,0,0,0.02
2013-7-10,73.8,70.5,64.4,60.2,58.4,55.3,72,66,61,29.64,29.61,0,0,0,0.00
2013-7-13,76.9,71.4,59.4,56.3,52.6,48.6,68,52,43,29.81,29.76,0,0,0,0.00
2013-7-14,81.7,67.1,49.1,55.7,49.2,42.7,84,56,33,29.78,29.65,0,0,0,0.00
2013-7-15,80.6,67.5,51.3,58.1,50.8,42.9,79,57,41,29.70,29.56,0,0,0,0.00
2013-7-16,63.5,61.1,58.3,47.4,47.0,46.2,64,60,55,29.56,29.54,0,0,0,0.00
2013-7-21,72.9,65.8,59.9,63.0,57.9,53.5,79,76,71,29.62,29.59,0,0,0,0.00
2013-7-22,78.8,65.0,56.2,64.7,57.3,50.7,89,77,58,29.72,29.61,0,0,0,0.01
2013-7-23,84.6,70.2,53.8,63.7,56.9,49.1,90,65,41,29.71,29.63,0,0,0,0.00
2013-7-24,84.6,70.7,54.9,61.7,54.8,47.4,84,59,39,29.71,29.66,0,0,0,0.00
2013-7-25,84.6,69.1,52.0,58.9,51.4,43.3,85,56,31,29.76,29.69,0,0,0,0.00
2013-7-26,84.2,69.0,51.5,57.4,50.0,42.5,80,54,31,29.80,29.74,0,0,0,0.00
2013-7-27,78.1,64.9,51.1,56.3,49.9,42.1,78,59,42,29.82,29.66,0,0,0,0.00
2013-7-28,70.6,59.4,50.4,56.4,50.6,43.3,85,73,60,29.69,29.63,0,0,0,0.00
2013-7-29,75.1,63.1,54.5,59.5,53.7,48.2,84,72,54,29.66,29.61,0,0,0,0.00
2013-7-30,78.5,64.4,52.0,60.9,54.6,46.7,88,71,53,29.79,29.67,0,0,0,0.14
2013-7-31,69.7,62.1,54.9,61.7,56.1,49.0,88,81,74,29.78,29.66,0,0,0,0.00
2013-8-1,66.4,60.4,55.8,59.0,55.3,52.6,90,84,76,29.73,29.69,0,0,0,0.57
2013-8-2,63.4,60.5,58.0,57.9,55.9,53.5,90,85,79,29.78,29.72,0,0,0,0.04
2013-8-3,72.2,64.9,59.0,63.3,59.4,56.2,92,83,71,29.78,29.71,0,0,0,0.05
2013-8-4,82.3,68.4,55.8,64.9,59.0,51.9,90,73,54,29.71,29.61,0,0,0,0.00
2013-8-5,85.5,70.5,56.3,64.0,57.6,50.9,88,66,41,29.67,29.59,0,0,0,0.00
2013-8-6,85.5,69.4,54.4,61.9,55.3,48.5,85,63,34,29.66,29.58,0,0,0,0.00
2013-8-7,85.7,69.2,54.0,61.8,55.0,47.4,84,63,38,29.67,29.61,0,0,0,0.00
2013-8-8,81.4,67.7,54.9,62.4,56.3,48.2,86,68,49,29.69,29.60,0,0,0,0.00
2013-8-9,81.7,68.9,55.6,60.9,56.4,49.1,85,66,46,29.61,29.51,0,0,0,0.00
2013-8-10,80.8,68.6,61.6,65.6,60.8,57.1,86,77,58,29.68,29.56,0,0,0,0.04
2013-8-11,76.7,67.0,57.8,61.8,57.6,52.9,85,73,56,29.72,29.65,0,0,0,0.00
2013-8-12,68.6,61.5,58.7,58.4,55.0,52.6,84,79,70,29.73,29.68,0,0,0,0.00
2013-8-17,76.7,71.8,63.5,62.6,59.7,56.5,80,66,56,29.73,29.69,0,0,0,0.00
2013-8-18,78.7,68.4,59.4,61.1,57.7,54.9,85,70,52,29.78,29.73,0,0,0,0.00
2013-8-19,81.2,67.5,57.6,60.8,56.1,51.5,84,68,50,29.77,29.71,0,0,0,0.00
2013-8-20,77.2,65.8,54.0,59.2,52.3,46.3,78,63,48,29.81,29.73,0,0,0,0.00
2013-8-21,81.9,65.9,49.5,58.4,52.4,42.8,83,64,44,29.75,29.60,0,0,0,0.00
2013-8-22,85.1,68.8,53.6,62.8,55.7,46.3,83,64,45,29.61,29.48,0,0,0,0.00
2013-8-23,72.7,65.2,59.8,60.8,56.8,54.0,84,75,63,29.56,29.50,0,0,0,0.00
2013-8-24,74.5,65.2,58.7,60.9,56.9,51.8,88,75,59,29.58,29.52,0,0,0,0.01
2013-8-25,72.0,62.8,53.5,59.8,54.9,48.2,84,76,61,29.59,29.53,0,0,0,0.00
2013-8-26,75.8,65.2,58.3,61.1,57.2,54.2,89,76,54,29.62,29.52,0,0,0,0.02
2013-8-27,79.7,67.6,59.8,63.6,59.2,55.3,89,76,55,29.62,29.46,0,0,0,0.01
2013-8-28,78.3,68.2,60.7,68.0,61.4,56.0,90,80,63,29.56,29.49,0,0,0,0.25
2013-8-29,75.1,66.6,63.5,69.9,63.1,60.6,92,89,80,29.69,29.52,0,0,0,1.23
2013-8-30,76.5,66.7,58.7,64.5,60.7,54.2,93,82,59,29.81,29.69,0,0,0,0.03
2013-8-31,79.9,64.7,51.5,63.8,56.6,48.3,92,76,55,29.73,29.50,0,0,0,0.00
2013-9-1,79.7,66.5,55.6,64.2,58.1,52.2,92,76,54,29.55,29.48,0,0,0,0.00
2013-9-2,81.5,68.0,57.2,62.6,58.0,53.4,90,72,49,29.60,29.53,0,0,0,0.00
2013-9-3,72.7,64.7,58.1,64.8,59.3,53.6,90,83,68,29.68,29.60,0,0,0,0.15
2013-9-4,70.2,63.1,56.3,63.5,58.5,52.7,94,85,77,29.71,29.64,0,0,0,0.00
2013-9-5,68.8,62.4,57.6,62.7,58.9,54.7,94,89,79,29.70,29.59,0,0,0,0.19
2013-9-6,71.3,62.9,59.8,65.5,60.2,57.4,94,91,82,29.77,29.61,0,0,0,0.20
2013-9-7,74.5,63.6,58.7,64.9,59.5,55.7,95,87,70,29.77,29.68,0,0,0,0.08
2013-9-8,77.9,64.8,54.2,65.3,58.7,51.8,93,81,64,29.76,29.69,0,0,0,0.07
2013-9-9,77.0,64.6,55.4,65.1,58.6,52.2,93,82,63,29.72,29.63,0,0,0,0.00
2013-9-10,79.6,65.5,55.6,66.2,59.2,52.1,93,81,61,29.64,29.55,0,0,0,0.00
2013-9-11,89.1,69.6,55.1,70.6,61.2,52.2,94,77,52,29.59,29.54,0,0,0,0.00
2013-9-12,80.6,66.4,58.3,68.2,60.2,54.5,92,81,66,29.66,29.57,0,0,0,0.13
2013-9-13,65.9,62.3,57.6,62.2,59.0,53.5,93,89,84,29.63,29.53,0,0,0,0.01
2013-9-14,67.7,63.3,57.4,63.4,60.2,54.8,92,90,86,29.53,29.38,0,0,0,0.01
2013-9-15,64.8,61.0,56.0,62.2,59.1,53.6,96,93,90,29.48,29.36,0,0,0,0.02
2013-9-16,66.1,61.3,58.1,62.4,58.8,54.6,96,92,86,29.59,29.48,0,0,0,0.03
2013-9-17,62.6,57.7,54.5,56.2,53.1,51.0,91,85,76,29.59,29.52,0,0,0,0.01
2013-9-18,71.8,59.3,51.3,57.7,53.2,47.5,92,81,59,29.72,29.59,0,0,0,0.00
2013-9-19,77.6,58.9,44.8,60.7,51.3,42.4,93,77,52,29.69,29.42,0,0,0,0.00
2013-9-20,73.8,59.3,48.8,59.9,52.5,46.3,93,79,54,29.43,29.26,0,0,0,0.08
2013-9-21,70.4,60.7,55.1,58.3,54.3,51.3,91,81,53,29.37,29.31,0,0,0,0.00
2013-9-22,60.1,56.1,53.5,56.1,53.3,51.3,94,90,85,29.40,29.25,0,0,0,0.44
2013-9-23,59.4,55.0,49.7,55.8,52.6,47.4,95,92,85,29.61,29.41,0,0,0,0.26
2013-9-24,61.9,52.3,46.3,55.2,48.8,44.4,95,88,69,29.60,29.49,0,0,0,0.09
2013-9-25,56.7,50.3,43.9,53.9,47.9,42.0,94,91,86,29.67,29.49,0,0,0,0.05
2013-9-26,62.6,49.7,40.1,55.6,46.4,38.5,96,89,73,29.78,29.66,0,0,0,0.02
2013-9-27,55.6,52.0,46.6,53.2,49.7,44.7,95,92,86,29.78,29.50,0,0,0,0.01
2013-9-28,59.9,54.8,51.1,58.2,53.3,49.4,97,95,92,29.50,29.03,0,0,0,0.03
2013-9-29,53.6,52.0,50.6,52.5,49.9,48.6,96,93,88,29.23,28.82,0,0,0,0.02
2013-9-30,55.4,50.3,47.5,52.9,48.4,45.3,96,93,88,29.57,29.11,0,0,0,0.02
2013-10-1,55.3,49.6,45.9,51.4,47.4,44.3,96,92,83,29.77,29.56,0,0,0,0.02
2013-10-2,54.5,50.6,47.9,50.9,48.1,46.0,94,91,86,29.81,29.70,0,0,0,0.02
2013-10-3,56.7,49.9,42.8,51.8,47.2,40.4,95,90,82,30.08,29.81,0,0,0,0.02
2013-10-4,64.1,48.5,38.3,56.7,45.1,36.7,96,88,70,30.10,29.99,0,0,0,0.01
2013-10-5,68.2,52.2,40.5,57.2,47.6,38.9,96,85,67,29.99,29.77,0,0,0,0.04
2013-10-6,72.7,53.6,42.7,60.2,48.0,40.8,96,83,54,29.77,29.55,0,0,0,0.00
2013-10-7,58.5,53.3,50.6,51.6,49.1,46.7,94,86,70,29.66,29.56,0,0,0,0.00
2013-10-8,57.6,50.4,42.8,53.5,46.7,40.1,90,87,84,29.71,29.61,0,0,0,0.00
2013-10-9,58.7,46.5,37.1,51.5,42.9,35.1,95,88,74,29.77,29.60,0,0,0,0.01
2013-10-10,59.2,50.2,43.7,51.5,46.5,41.6,94,87,73,29.71,29.58,0,0,0,0.01
2013-10-11,58.0,51.8,47.3,54.1,48.9,44.9,94,90,82,29.78,29.71,0,0,0,0.01
2013-10-12,56.5,49.8,43.2,51.2,46.8,40.5,94,89,79,29.85,29.71,0,0,0,0.01
2013-10-13,50.6,43.0,39.1,48.3,41.1,37.2,96,93,90,29.95,29.85,0,0,0,0.00
2013-10-22,49.1,45.1,41.8,46.6,43.1,39.9,94,92,91,29.68,29.67,0,0,0,0.00
2013-10-23,56.9,47.2,42.3,54.9,45.6,40.7,97,94,91,29.69,29.62,0,0,0,0.00
2013-10-24,51.5,46.5,41.6,49.8,45.1,40.2,96,95,94,29.76,29.66,0,0,0,0.00
2013-10-25,52.9,48.0,41.4,51.3,46.3,39.5,95,94,92,29.94,29.76,0,0,0,0.01
2013-10-26,49.9,46.3,40.7,47.0,44.1,38.8,94,92,90,29.97,29.83,0,0,0,0.00
2013-10-27,51.3,46.5,40.7,48.2,44.0,38.3,92,91,88,29.83,29.55,0,0,0,0.00
2013-10-28,56.9,45.6,38.3,45.1,38.6,33.0,91,78,52,29.58,29.53,0,0,0,0.00
2013-10-29,56.0,39.9,31.7,44.7,35.6,28.9,90,85,64,29.67,29.58,0,0,0,0.01
2013-10-30,55.8,45.0,35.1,48.3,40.7,32.4,90,85,73,29.77,29.66,0,0,0,0.01
2013-10-31,52.9,49.6,46.6,48.8,45.8,43.5,89,87,85,29.89,29.75,0,0,0,0.00
2013-11-1,61.2,53.2,49.3,56.7,48.6,44.2,87,84,80,29.91,29.49,0,0,0,0.00
2013-11-2,51.3,50.2,48.1,46.5,45.1,43.7,87,83,78,29.49,29.17,0,0,0,0.02
2013-11-12,50.2,50.1,50.0,40.1,39.6,39.1,68,67,66,29.97,29.97,0,0,0,0.00
2013-11-13,55.6,49.8,46.8,49.9,36.9,28.7,84,63,43,30.07,29.95,0,0,0,0.02
2013-11-14,52.8,47.1,40.0,43.0,35.1,29.6,84,64,50,29.93,29.72,0,0,0,0.02
2013-11-15,44.5,42.6,39.8,35.4,24.8,21.6,84,50,40,29.70,28.99,0,0,0,0.02
2013-11-16,52.8,45.5,37.1,47.2,34.7,22.4,82,66,49,29.34,29.01,0,0,0,0.02
2013-11-17,47.5,44.0,41.2,36.5,32.2,25.0,80,65,43,29.54,29.43,0,0,0,0.02
2013-11-18,50.2,48.1,46.1,26.1,22.4,20.4,42,36,31,29.55,29.21,0,0,0,0.02
2013-11-19,52.8,45.7,37.3,43.8,34.0,27.5,82,64,39,29.54,29.21,0,0,0,0.02
2013-11-20,41.2,32.2,27.5,34.8,26.4,22.9,83,79,68,30.11,29.48,0,0,0,0.02
2013-11-21,38.2,29.8,24.3,33.1,24.1,17.8,83,79,73,30.26,30.13,0,0,0,0.02
2013-11-22,52.8,32.0,23.9,45.2,25.1,17.2,82,76,65,30.26,30.09,0,0,0,0.02
2013-11-23,52.8,46.3,31.7,47.8,41.0,25.9,83,82,79,29.95,29.84,0,0,0,0.02
2013-11-24,44.1,32.9,27.7,38.0,26.3,19.5,84,76,71,29.87,29.79,0,0,0,0.02
2013-11-25,52.8,37.2,29.2,48.2,28.0,16.7,84,70,47,29.94,29.88,0,0,0,0.02
2013-11-26,52.8,40.4,29.2,38.1,22.4,14.6,57,49,34,29.90,29.74,0,0,0,0.02
2013-11-27,52.8,43.9,36.0,44.6,31.5,20.1,84,63,43,29.72,29.48,0,0,0,0.02
2013-11-28,52.8,40.5,32.8,39.4,24.0,16.1,84,53,32,29.79,29.66,0,0,0,0.02
2013-11-29,46.4,41.6,34.9,17.2,13.8,11.1,48,33,24,29.95,29.81,0,0,0,0.02
2013-11-30,48.2,45.7,43.4,15.8,10.0,7.6,28,23,20,29.97,29.77,0,0,0,0.02
2013-12-1,51.7,49.3,46.3,39.8,19.2,-3.3,78,35,10,29.74,29.42,0,0,0,0.02
2013-12-2,52.8,43.1,34.4,46.5,36.1,24.1,84,76,65,29.67,29.45,0,0,0,0.02
2013-12-3,37.1,32.3,26.3,30.4,25.3,19.9,84,76,54,29.92,29.68,0,0,0,0.02
2013-12-4,34.9,26.5,21.2,29.0,20.0,14.2,81,76,68,29.97,29.91,0,0,0,0.02
2013-12-5,30.2,24.1,20.7,24.3,18.6,15.8,81,79,77,29.94,29.82,0,0,0,0.02
2013-12-6,31.1,26.1,24.8,21.6,14.2,9.6,84,61,51,29.80,29.76,0,0,0,0.02
2013-12-7,26.8,20.4,17.1,22.7,12.8,7.8,84,72,61,30.00,29.83,0,0,0,0.02
2013-12-8,29.9,21.2,18.0,20.9,13.9,8.6,79,73,66,30.19,30.04,0,0,0,0.00
2013-12-9,32.8,28.9,17.5,24.6,22.4,12.5,82,77,70,30.18,30.11,0,0,0,0.00
2013-12-10,37.1,32.3,29.3,30.9,25.6,22.7,79,76,70,30.12,30.05,0,0,0,0.00
2013-12-11,40.0,29.5,24.8,33.3,22.6,14.7,84,75,65,30.04,29.84,0,0,0,0.00
2013-12-12,37.3,33.8,28.8,25.0,16.8,12.5,84,52,36,29.78,29.70,0,0,0,0.09
2013-12-13,52.8,43.8,37.3,15.9,9.0,3.2,36,25,17,30.06,29.78,0,0,0,0.10
2013-12-14,52.8,46.2,39.8,9.1,3.7,-2.2,22,18,15,30.01,29.99,0,0,0,0.00
2013-12-15,51.1,45.3,42.1,-0.9,-3.3,-7.2,16,13,7,30.09,29.96,0,0,0,0.02
2013-12-16,52.8,45.5,39.2,17.8,2.6,-4.5,25,18,12,30.12,29.93,0,0,0,0.00
2013-12-17,52.8,41.9,37.8,11.6,3.2,-0.7,22,20,16,29.90,29.75,0,0,0,0.02
2013-12-18,52.8,41.3,32.0,7.8,2.1,-2.5,31,20,15,29.78,29.66,0,0,0,0.03
2013-12-19,34.9,31.3,27.4,5.2,3.6,2.5,35,31,26,29.97,29.77,0,0,0,0.00
2013-12-20,37.4,34.0,29.5,3.7,2.9,1.8,32,27,22,29.77,29.37,0,0,0,0.16
2013-12-21,44.6,41.8,37.4,1.9,-3.5,-7.5,22,15,11,29.81,29.47,0,0,0,0.16
2013-12-22,48.6,45.6,44.3,-5.5,-7.9,-8.9,10,9,5,29.91,29.80,0,0,0,0.19
2013-12-23,52.8,48.4,42.3,43.9,17.6,-5.7,84,36,3,30.14,29.84,0,0,0,0.08
2013-12-24,52.8,42.9,31.7,31.9,14.0,3.6,45,32,20,30.25,30.15,0,0,0,0.00
2013-12-25,40.5,35.2,29.3,10.5,7.9,6.1,37,32,27,30.12,30.03,0,0,0,0.00
2013-12-26,41.0,34.3,31.9,7.0,6.0,5.4,33,30,24,30.01,29.85,0,0,0,0.00
2013-12-27,42.1,35.7,31.5,5.4,4.0,-0.4,32,27,17,29.92,29.77,0,0,0,0.05
2013-12-28,52.8,44.1,32.9,16.9,2.4,-7.6,26,18,9,30.15,30.01,0,0,0,0.00
2013-12-29,42.7,36.9,32.4,1.9,-0.1,-4.4,27,21,14,30.09,29.94,0,0,0,0.00
2013-12-30,42.1,38.0,34.7,2.3,-0.6,-4.9,25,20,14,29.93,29.78,0,0,0,0.01
2013-12-31,52.8,45.2,41.6,6.3,-6.5,-14.7,15,11,7,30.00,29.84,0,0,0,0.03
2014-1-1,52.8,41.1,34.4,6.3,-0.9,-4.9,23,17,14,30.03,29.88,0,0,0,0.02
2014-1-2,46.4,44.1,41.2,-3.9,-6.5,-8.4,15,11,7,29.82,29.56,0,0,0,0.24